Location: Amsterdam
(30.7274°N, 84.4357°W)
Time: 08:10:41
(UTC+00:00)

MOZHAYETS 4 - Pass Details

Date: 23 March 2026
Orbit: 642 x 659 km, 98.3° (Epoch: 19 April)

Event Time Altitude Azimuth Distance (km) Brightness Sun altitude
Rises 10:19:34 0° 151° (SSE) 2,974 11.3 -17.5°
Reaches altitude 10° 10:21:51 10° 145° (SE) 2,065 10.5 -17.0°
Maximum altitude 10:26:08 44° 74° (ENE) 914 8.9 -16.1°
Drops below altitude 10° 10:30:24 10° 3° (N) 2,070 10.4 -15.2°
Sets 10:32:42 0° 356° (N) 2,983 11.2 -14.7°
